Location: Gull Harbor
(47.1000°N, 122.9000°W)
Time: 04:10:09
(UTC-08:00)

Envisat - Pass Details

Date: 29 October 2019
Orbit: 764 x 766 km, 98.1° (Epoch: 14 November)

Event Time Altitude Azimuth Distance (km) Brightness Sun altitude
Rises 06:59:38 0° 27° (NNE) 3,242 6.5 -9.1°
Reaches altitude 10° 07:02:34 10° 44° (NE) 2,310 6.0 -8.6°
Maximum altitude 07:06:15 20° 91° (E) 1,723 6.1 -8.0°
Drops below altitude 10° 07:09:55 10° 137° (SE) 2,297 6.4 -7.4°
Sets 07:12:48 0° 154° (SSE) 3,218 6.8 -6.9°
